Home > Weather > Chattanooga > Past weeks

Flag for USA Weather for the Past 2 Weeks in Chattanooga, Tennessee, USA

Now
69 °F

Scattered clouds.


Feels Like: 69 °F
Forecast: 51 / 71 °F
Wind: 3 mph from North

Location: Lovell Field

Current Time: May 4, 2016 at 3:54:48 PM

Latest Report: May 4, 2016 at 1:53 PM


Visibility: 10 mi

Pressure: 29.76 "Hg

Humidity: 31%

Dew Point: 37 °F

Location of ChattanoogaLocation

Historic Weather in Chattanooga — Graph

°F

Chattanooga Temperature Yesterday

Maximum temperature yesterday: 74 °F (at 2:53 PM)
Minimum temperature yesterday: 61 °F (at 11:53 PM)
Average temperature yesterday: 67 °F

High & Low Weather Summary for the Past Weeks

 TemperatureHumidityPressure
High85 °F (Apr 20, 2:53 PM)97% (May 3, 1:00 AM)30.16 "Hg (May 3, 1:00 AM)
Low52 °F (Apr 23, 6:53 AM)19% (Apr 20, 3:53 PM)29.76 "Hg (Apr 27, 7:53 PM)
Average69 °F64%29.95 "Hg
* Reported Apr 19 1:53 PM — May 4 1:53 PM, Chattanooga, Weather by CustomWeather, © 2016

Note: Actual official high and low records may vary slightly from our data, if they occured in-between our weather recording intervals... More about our weather records

Advertising

Chattanooga Weather History for the Previous 24 Hours

Scroll right to see more
 ConditionsComfort  
Time TempWeatherWind HumidityBarometerVisibility
1:53 PM
Wed, May 4
69 °FScattered clouds.3 mph31%29.76 "Hg10 mi
12:53 PM68 °FScattered clouds.8 mph38%29.78 "Hg10 mi
11:53 AM66 °FScattered clouds.10 mph40%29.80 "Hg10 mi
10:53 AM64 °FScattered clouds.8 mph47%29.81 "Hg10 mi
9:53 AM60 °FScattered clouds.5 mph58%29.83 "Hg10 mi
8:53 AM59 °FPassing clouds.5 mph64%29.85 "Hg10 mi
7:53 AM55 °FPassing clouds.5 mph72%29.85 "Hg10 mi
6:53 AM53 °FPassing clouds.7 mph74%29.85 "Hg10 mi
5:53 AM54 °FClear.7 mph72%29.84 "Hg10 mi
4:53 AM54 °FClear.7 mph72%29.84 "Hg10 mi
3:53 AM55 °FClear.No wind72%29.84 "Hg10 mi
2:53 AM56 °FClear.3 mph70%29.85 "Hg10 mi
1:53 AM59 °FOvercast.5 mph67%29.86 "Hg10 mi
12:53 AM61 °FOvercast.5 mph60%29.87 "Hg10 mi
11:53 PM
Tue, May 3
61 °FPassing clouds.10 mph62%29.88 "Hg10 mi
10:53 PM63 °FPassing clouds.12 mph58%29.89 "Hg10 mi
9:53 PM64 °FPassing clouds.8 mph58%29.88 "Hg10 mi
8:53 PM65 °FPartly sunny.9 mph56%29.86 "Hg10 mi
7:53 PM67 °FPartly sunny.12 mph53%29.85 "Hg10 mi
6:53 PM70 °FBroken clouds.12 mph47%29.85 "Hg10 mi
5:53 PM73 °FBroken clouds.7 mph40%29.84 "Hg10 mi
4:53 PM74 °FScattered clouds.10 mph41%29.84 "Hg10 mi
3:53 PM72 °FScattered clouds.10 mph46%29.85 "Hg10 mi
Weather by CustomWeather, © 2016

See weather overviewHow to use our weather pages